Location: Trebic
(49.2170°N, 15.8830°E)
Time: 15:01:58
(UTC+02:00)

Transit 4A - Pass Details

Date: 31 August 2019
Orbit: 867 x 978 km, 66.8° (Epoch: 22 October)

Event Time Altitude Azimuth Distance (km) Brightness Sun altitude
Rises 17:44:02 0° 222° (SW) 3,664 11.8 18.3°
Reaches altitude 10° 17:46:37 10° 224° (SW) 2,722 11.3 17.9°
Maximum altitude 17:52:59 71° 309° (NW) 1,029 8.7 16.9°
Drops below altitude 10° 17:59:21 10° 33° (NNE) 2,710 10.0 15.9°
Sets 18:01:55 0° 36° (NE) 3,647 10.6 15.4°
